Regional Weather Roundup
Issued by NWS

Home | Current Version | Previous Version | Graphics & Text | Print | Product List | Glossary On
Versions: 1 2 3 4 5 6 7 8 9 10 11 12 13 14 15 16 17 18 19 20 21 22 23 24 25 26 27 28 29 30 31 32 33 34 35 36 37 38 39 40 41 42 43 44 45 46 47 48 49 50
000
ASUS43 KFSD 040602
RWRSD

WEATHER ROUNDUP FOR SOUTH DAKOTA
NATIONAL WEATHER SERVICE SIOUX FALLS SD
1200 AM CST WED MAR 04 2015

NOTE: "FAIR" INDICATES FEW OR NO CLOUDS BELOW 12,000 FEET WITH NO
SIGNIFICANT WEATHER AND/OR OBSTRUCTIONS TO VISIBILITY.


SDZ001>005-009-010-012>017-040700-
NORTHWEST AND NORTH CENTRAL SOUTH DAKOTA

CITY           SKY/WX    TMP DP  RH WIND       PRES   REMARKS
BUFFALO          N/A      4  -4  69 W15       29.93R WCI -14
FAITH            N/A      4  -6  63 W10       30.04S WCI -11
MOBRIDGE       CLEAR      0  -4  83 N3        30.04F
$$

SDZ012>016-024>037-041>051-057-063-072>074-040700-
SOUTHWEST AND SOUTH CENTRAL SOUTH DAKOTA

CITY           SKY/WX    TMP DP  RH WIND       PRES   REMARKS
RAPID CTY ARPT CLEAR      4  -4  69 W3        30.06R
PIERRE         CLEAR      5  -3  69 W7        30.11R WCI  -7
CUSTER         CLEAR     -3 -10  72 W9        29.88R WCI -19
ELLSWORTH AFB  CLEAR      4  -6  62 W5        30.04R WCI  -5
PHILIP         PTCLDY     8  -3  61 NW10      30.11R WCI  -6
PINE RIDGE     MOCLDY     6   2  83 W3        30.08R
SPEARFISH      FAIR       9  -2  61 W17G24    30.00R WCI -10
WINNER         FAIR       8  -2  63 W12       30.12R WCI  -7
$$

SDZ004>011-016>023-039-040-040700-
NORTHEAST SOUTH DAKOTA

CITY           SKY/WX    TMP DP  RH WIND       PRES   REMARKS
ABERDEEN       CLEAR      1  -8  66 NW7       30.12S WCI -12
WATERTOWN      CLEAR     -2  -8  76 NW8       30.05R WCI -17
SISSETON         N/A      2  -7  66 NW16      30.08R WCI -18
$$

SDZ017-020-022-023-036>040-048>070-040700-
SOUTHEAST SOUTH DAKOTA

CITY           SKY/WX    TMP DP  RH WIND       PRES   REMARKS
SIOUX FALLS    MOCLDY     6  -1  73 NW6       30.11R WCI  -4
HURON          PTCLDY    -6 -10  83 W7        30.13R WCI -20
MITCHELL       PTCLDY     4  -1  80 NW7       30.15R WCI  -8
YANKTON        MOCLDY    12   5  73 SW5       30.17R WCI   4
$$

ABBREVIATIONS USED IN REMARKS
   TC - TEMPERATURE IN CELSIUS
  WCI - WIND CHILL INDEX
   HX - HEAT INDEX
  VSB - VISIBILITY




USA.gov is the U.S. government's official web portal to all federal, state and local government web resources and services.